This is the latest recevied weather packets stored in our database for station/object KD6VLN-14. If no packets are shown the sender has not sent any weather packets the latest 1 day(s).
| Time | Temp. | Humidity | Pressure | Rain* | Wind** | Luminosity | Snow |
|---|---|---|---|---|---|---|---|
| 1778020897 | 25.56° C | 37% | - | 0 mm | 4.47 m/s, 264° | - | - |
| 1778020749 | 25.56° C | 37% | - | 0 mm | 4.47 m/s, 264° | - | - |
| 1778020583 | 25.56° C | 37% | - | 0 mm | 5.36 m/s, 246° | - | - |
| 1778020448 | 25.56° C | 37% | - | 0 mm | 5.36 m/s, 246° | - | - |
| 1778020297 | 25.56° C | 37% | - | 0 mm | 4.92 m/s, 245° | - | - |
| 1778020148 | 25.56° C | 37% | - | 0 mm | 4.92 m/s, 245° | - | - |
| 1778020013 | 25.56° C | 37% | - | 0 mm | 5.36 m/s, 250° | - | - |
| 1778019848 | 25.56° C | 37% | - | 0 mm | 5.36 m/s, 250° | - | - |
| 1778019732 | 25.56° C | 37% | - | 0 mm | 5.36 m/s, 244° | - | - |
| 1778019548 | 25.56° C | 37% | - | 0 mm | 5.36 m/s, 244° | - | - |
| 1778019415 | 25° C | 37% | - | 0 mm | 5.36 m/s, 237° | - | - |
| 1778019249 | 25° C | 37% | - | 0 mm | 5.36 m/s, 237° | - | - |
| 1778019033 | 24.44° C | 37% | - | 0 mm | 4.92 m/s, 247° | - | - |
| 1778018948 | 24.44° C | 37% | - | 0 mm | 4.92 m/s, 247° | - | - |
| 1778018693 | 25° C | 37% | - | 0 mm | 4.92 m/s, 255° | - | - |
| 1778018648 | 25° C | 37% | - | 0 mm | 4.92 m/s, 255° | - | - |
| 1778018350 | 25° C | 37% | - | 0 mm | 5.36 m/s, 251° | - | - |
| 1778018048 | 23.89° C | 37% | - | 0 mm | 4.92 m/s, 248° | - | - |
| 1778017749 | 23.33° C | 37% | - | 0 mm | 4.47 m/s, 261° | - | - |
| 1778017449 | 22.78° C | 37% | - | 0 mm | 4.47 m/s, 250° | - | - |
| 1778016550 | 22.78° C | 37% | - | 0 mm | 5.36 m/s, 264° | - | - |
| 1778016302 | 22.22° C | 38% | - | 0 mm | 4.92 m/s, 265° | - | - |
| 1778016253 | 22.22° C | 38% | - | 0 mm | 4.92 m/s, 265° | - | - |
| 1778015996 | 22.22° C | 38% | - | 0 mm | 4.02 m/s, 248° | - | - |
| 1778015351 | 22.78° C | 38% | - | 0 mm | 4.92 m/s, 228° | - | - |
* Rain latest hour (hover to see other rain measurements)
** Current wind speed in m/s (hover to see current wind gust speed)